NT2C Weather Reports


time (UTC)temp
C
wind
direction
speed
KPH
gust
KPH
rain 1hr
cm
rain 24hr
cm
rain mn
cm
humidity
%
barometer
mb
20260510131517 21 212 0.0 4.8 0.00 0.00 0.00 64 1005.8
20260510131015 20 224 0.0 4.8 0.00 0.00 0.00 65 1005.8
20260510130514 20 261 0.0 3.2 0.00 0.00 0.00 67 1005.9
20260510130033 19 282 0.0 3.2 0.00 0.00 0.00 68 1006.0
20260510125511 18 262 0.0 4.8 0.00 0.00 0.00 69 1006.1
20260510125013 18 290 0.0 8.0 0.00 0.00 0.00 71 1006.2
20260510124508 18 233 4.8 8.0 0.00 0.00 0.00 70 1006.2
20260510124007 18 242 3.2 6.4 0.00 0.00 0.00 72 1006.2
20260510123506 17 219 1.6 8.0 0.00 0.00 0.00 73 1006.2
20260510123004 17 235 4.8 8.0 0.00 0.00 0.00 74 1006.0
20260510122503 17 212 1.6 4.8 0.00 0.00 0.00 75 1005.9
20260510122005 17 219 0.0 4.8 0.00 0.00 0.00 77 1005.7
20260510121501 16 295 0.0 6.4 0.00 0.00 0.00 78 1005.7
20260510121059 16 290 1.6 6.4 0.00 0.00 0.00 78 1005.7
20260510120558 16 287 0.0 4.8 0.00 0.00 0.00 82 1005.7
20260510120059 15 260 0.0 4.8 0.00 0.00 0.00 83 1005.7
20260510115558 15 290 0.0 1.6 0.00 0.00 0.00 85 1005.6
20260510115059 14 290 0.0 1.6 0.00 0.00 0.00 86 1005.6
20260510114604 13 288 0.0 1.6 0.00 0.00 0.00 88 1005.5
20260510114056 13 226 0.0 1.6 0.00 0.00 0.00 90 1005.5
20260510113556 13 227 0.0 1.6 0.00 0.00 0.00 91 1005.5
20260510113057 13 242 0.0 0.0 0.00 0.00 0.00 91 1005.4
20260510112555 13 243 0.0 0.0 0.00 0.00 0.00 92 1005.4
20260510112056 12 243 0.0 0.0 0.00 0.00 0.00 92 1005.4
20260510111557 12 243 0.0 0.0 0.00 0.00 0.00 93 1005.3
20260510111053 11 243 0.0 0.0 0.00 0.00 0.00 92 1005.1
20260510110553 11 243 0.0 0.0 0.00 0.00 0.00 92 1005.2
20260510110052 11 243 0.0 0.0 0.00 0.00 0.00 92 1005.1
20260510105551 11 243 0.0 0.0 0.00 0.00 0.00 92 1005.0
20260510105050 11 243 0.0 0.0 0.00 0.00 0.00 92 1004.9
20260510104556 11 243 0.0 0.0 0.00 0.00 0.00 92 1004.9
20260510104049 11 243 0.0 0.0 0.00 0.00 0.00 92 1004.7
20260510103548 10 243 0.0 0.0 0.00 0.00 0.00 91 1004.7
20260510103048 10 243 0.0 0.0 0.00 0.00 0.00 91 1004.7
20260510102548 11 243 0.0 0.0 0.00 0.00 0.00 91 1004.6
20260510102046 11 243 0.0 0.0 0.00 0.00 0.00 91 1004.5
20260510101547 11 243 0.0 0.0 0.00 0.00 0.00 91 1004.4
20260510101043 11 243 0.0 0.0 0.00 0.00 0.00 91 1004.4
20260510100543 11 243 0.0 0.0 0.00 0.00 0.00 91 1004.4
20260510100042 11 243 0.0 0.0 0.00 0.00 0.00 91 1004.2
20260510095542 11 243 0.0 0.0 0.00 0.00 0.00 91 1004.1
20260510095041 11 243 0.0 0.0 0.00 0.00 0.00 90 1004.1
20260510094540 11 243 0.0 0.0 0.00 0.00 0.00 90 1004.1
20260510094039 11 243 0.0 0.0 0.00 0.00 0.00 91 1004.1
20260510093538 11 243 0.0 0.0 0.00 0.00 0.00 90 1004.0
20260510093038 11 243 0.0 0.0 0.00 0.00 0.00 90 1003.9
20260510092538 11 243 0.0 0.0 0.00 0.00 0.00 90 1003.9
20260510092036 11 243 0.0 1.6 0.00 0.00 0.00 90 1003.9
20260510091537 11 243 0.0 1.6 0.00 0.00 0.00 90 1003.9
20260510091035 12 243 0.0 0.0 0.00 0.00 0.00 90 1003.8
20260510090539 12 243 0.0 0.0 0.00 0.00 0.00 90 1003.8
20260510090036 11 243 0.0 0.0 0.00 0.00 0.00 90 1003.8
20260510085534 12 243 0.0 0.0 0.00 0.00 0.00 89 1003.8
20260510085032 12 243 0.0 0.0 0.00 0.00 0.00 89 1003.7
20260510084535 12 243 0.0 1.6 0.00 0.00 0.00 89 1003.7
20260510084031 12 243 0.0 1.6 0.00 0.00 0.00 89 1003.7
20260510083531 12 243 0.0 0.0 0.00 0.00 0.00 89 1003.7
20260510083030 12 242 0.0 0.0 0.00 0.00 0.00 88 1003.6
20260510082528 12 243 0.0 1.6 0.00 0.00 0.00 88 1003.6
20260510082028 12 243 0.0 4.8 0.00 0.00 0.00 88 1003.6
20260510081529 12 242 0.0 4.8 0.00 0.00 0.00 89 1003.5
20260510081026 12 209 0.0 1.6 0.00 0.00 0.00 89 1003.5
20260510080525 13 231 0.0 1.6 0.00 0.00 0.00 88 1003.4
20260510080025 13 231 0.0 3.2 0.00 0.00 0.00 89 1003.4
20260510075524 13 226 0.0 3.2 0.00 0.00 0.00 89 1003.4
20260510075024 12 226 0.0 1.6 0.00 0.00 0.00 89 1003.3
20260510074524 12 231 0.0 0.0 0.00 0.00 0.00 89 1003.3
20260510074022 12 203 0.0 0.0 0.00 0.00 0.00 88 1003.2
20260510073521 12 203 0.0 0.0 0.00 0.00 0.00 88 1003.1
20260510073021 13 203 0.0 0.0 0.00 0.00 0.00 88 1003.1
20260510072522 13 203 0.0 0.0 0.00 0.00 0.00 88 1003.0
20260510072023 13 203 0.0 0.0 0.00 0.00 0.00 87 1003.0
20260510071521 13 203 0.0 0.0 0.00 0.00 0.00 87 1003.1
20260510071019 13 203 0.0 0.0 0.00 0.00 0.00 86 1003.2
20260510070518 13 196 0.0 0.0 0.00 0.00 0.00 86 1003.2
20260510070018 13 196 0.0 0.0 0.00 0.00 0.00 86 1003.2
20260510065516 13 203 0.0 0.0 0.00 0.00 0.00 86 1003.2
20260510065019 13 205 0.0 1.6 0.00 0.00 0.00 86 1003.0
20260510064527 13 195 0.0 1.6 0.00 0.00 0.00 85 1003.1
20260510064014 13 233 0.0 1.6 0.00 0.00 0.00 84 1003.0
20260510063516 14 233 0.0 3.2 0.00 0.00 0.00 85 1003.1
20260510063014 13 234 0.0 4.8 0.00 0.00 0.00 86 1003.2
20260510062513 13 221 0.0 1.6 0.00 0.00 0.00 86 1003.2
20260510062012 13 204 0.0 1.6 0.00 0.00 0.00 85 1003.0
20260510061519 13 218 0.0 1.6 0.00 0.00 0.00 85 1002.9
20260510061011 13 218 0.0 1.6 0.00 0.00 0.00 85 1003.0
20260510060510 13 242 0.0 0.0 0.00 0.00 0.00 84 1002.9
20260510060010 13 242 0.0 0.0 0.00 0.00 0.00 84 1002.8
20260510055509 13 242 0.0 0.0 0.00 0.00 0.00 83 1002.8
20260510055008 14 242 0.0 0.0 0.00 0.00 0.00 82 1002.9
20260510054507 14 242 0.0 0.0 0.00 0.00 0.00 83 1003.0
20260510054008 14 242 0.0 0.0 0.00 0.00 0.00 82 1003.0
20260510053506 15 242 0.0 0.0 0.00 0.00 0.00 82 1003.0
20260510053014 15 242 0.0 1.6 0.00 0.00 0.00 81 1002.9
20260510052503 15 242 0.0 1.6 0.00 0.00 0.00 81 1003.0
20260510052002 15 242 0.0 1.6 0.00 0.00 0.00 80 1003.0
20260510051506 15 242 0.0 1.6 0.00 0.00 0.00 81 1003.0
20260510051001 15 242 0.0 3.2 0.00 0.00 0.00 81 1002.9
20260510050600 15 245 0.0 3.2 0.00 0.00 0.00 81 1002.9
20260510050104 15 237 0.0 1.6 0.00 0.00 0.00 80 1003.0
20260510045559 15 237 0.0 1.6 0.00 0.00 0.00 80 1002.9
20260510045058 15 237 0.0 1.6 0.00 0.00 0.00 79 1003.0
20260510044557 15 237 0.0 0.0 0.00 0.00 0.00 79 1003.0
20260510044056 15 237 0.0 1.6 0.00 0.00 0.00 78 1003.0
20260510043557 15 237 0.0 1.6 0.00 0.00 0.00 78 1003.0
20260510043055 16 237 0.0 1.6 0.00 0.00 0.00 78 1003.1
20260510042553 16 237 0.0 1.6 0.00 0.00 0.00 77 1003.0
20260510042053 16 243 0.0 0.0 0.00 0.00 0.00 77 1003.1
20260510041553 16 217 0.0 0.0 0.00 0.00 0.00 77 1002.9
20260510041052 16 217 0.0 0.0 0.00 0.00 0.00 76 1003.0
20260510040551 16 217 0.0 0.0 0.00 0.00 0.00 76 1002.9
20260510040049 16 217 0.0 1.6 0.00 0.00 0.00 76 1003.0
20260510035548 16 217 0.0 1.6 0.00 0.00 0.00 76 1002.9
20260510035048 16 217 0.0 1.6 0.00 0.00 0.00 75 1002.9
20260510034550 16 218 0.0 1.6 0.00 0.00 0.00 75 1002.9
20260510034048 16 224 0.0 1.6 0.00 0.00 0.00 75 1002.8
20260510033549 16 224 0.0 0.0 0.00 0.00 0.00 74 1002.8
20260510033056 16 224 0.0 1.6 0.00 0.00 0.00 75 1002.6
20260510032547 16 204 0.0 1.6 0.00 0.00 0.00 75 1002.7
20260510032048 16 189 0.0 0.0 0.00 0.00 0.00 75 1002.6
20260510031548 16 189 0.0 0.0 0.00 0.00 0.00 75 1002.6
20260510031048 16 189 0.0 0.0 0.00 0.00 0.00 75 1002.6
20260510030546 16 189 0.0 0.0 0.00 0.00 0.00 75 1002.6
20260510030046 16 189 0.0 0.0 0.00 0.00 0.00 74 1002.5
20260510025547 16 189 0.0 0.0 0.00 0.00 0.00 74 1002.6
20260510025046 16 189 0.0 0.0 0.00 0.00 0.00 73 1002.5
20260510024546 16 189 0.0 0.0 0.00 0.00 0.00 73 1002.4
20260510024046 16 189 0.0 0.0 0.00 0.00 0.00 73 1002.3
20260510023545 17 189 0.0 0.0 0.00 0.00 0.00 72 1002.4
20260510023046 17 189 0.0 0.0 0.00 0.00 0.00 71 1002.3
20260510022545 17 189 0.0 1.6 0.00 0.00 0.00 71 1002.3
20260510022044 17 189 0.0 1.6 0.00 0.00 0.00 70 1002.2
20260510021547 17 204 0.0 0.0 0.00 0.00 0.00 70 1002.1
20260510021045 17 199 0.0 0.0 0.00 0.00 0.00 69 1002.1
20260510020545 18 199 0.0 3.2 0.00 0.00 0.00 69 1002.1
20260510020045 18 200 0.0 3.2 0.00 0.00 0.00 69 1002.0
20260510015546 18 207 0.0 3.2 0.00 0.00 0.00 69 1002.0
20260510015044 18 200 0.0 3.2 0.00 0.00 0.00 69 1001.9
20260510014545 18 200 0.0 1.6 0.00 0.00 0.00 69 1001.8
20260510014045 18 210 0.0 3.2 0.00 0.00 0.00 69 1001.8
20260510013543 18 203 0.0 3.2 0.00 0.00 0.00 68 1001.8
20260510013045 18 212 0.0 0.0 0.00 0.00 0.00 68 1001.6
20260510012545 18 212 0.0 1.6 0.00 0.00 0.00 68 1001.6
20260510012047 18 211 0.0 1.6 0.00 0.00 0.00 67 1001.5
20260510011544 18 213 0.0 1.6 0.00 0.00 0.00 67 1001.5
20260510011043 18 213 0.0 1.6 0.00 0.00 0.00 67 1001.4
20260510010542 18 213 0.0 1.6 0.00 0.00 0.00 66 1001.4
20260510010043 19 221 0.0 1.6 0.00 0.00 0.00 66 1001.5
20260510005543 19 224 0.0 1.6 0.00 0.00 0.00 65 1001.4
20260510005042 19 174 0.0 1.6 0.00 0.00 0.00 65 1001.2
20260510004543 19 207 0.0 1.6 0.00 0.00 0.00 65 1001.2
20260510004042 20 209 0.0 1.6 0.00 0.00 0.00 64 1001.1
20260510003543 20 172 0.0 0.0 0.00 0.00 0.00 64 1000.9
20260510003055 20 173 0.0 1.6 0.00 0.00 0.00 63 1000.9
20260510002542 20 142 0.0 1.6 0.00 0.00 0.00 62 1000.9
20260510002042 21 142 0.0 1.6 0.00 0.00 0.00 61 1000.9
20260510001542 21 203 0.0 0.0 0.00 0.00 0.00 60 1000.8
20260510001043 21 203 0.0 1.6 0.00 0.00 0.00 59 1000.8
20260510000545 21 203 0.0 1.6 0.00 0.00 0.00 58 1000.9
20260510000043 22 200 0.0 3.2 0.00 0.00 0.00 57 1000.8
20260509235540 22 206 0.0 3.2 0.00 0.00 0.00 56 1000.7
20260509235041 22 166 0.0 4.8 0.00 0.00 0.00 55 1000.7
20260509234544 23 207 1.6 4.8 0.00 0.00 0.00 54 1000.6
20260509234039 23 228 0.0 4.8 0.00 0.00 0.00 54 1000.7
20260509233544 23 225 1.6 8.0 0.00 0.00 0.00 53 1000.7
20260509233040 23 238 1.6 6.4 0.00 0.00 0.00 53 1000.6
20260509232544 23 209 1.6 8.0 0.00 0.00 0.00 52 1000.5
20260509232040 23 235 3.2 6.4 0.00 0.00 0.00 52 1000.6
20260509231540 23 212 1.6 8.0 0.00 0.00 0.00 52 1000.6
20260509231038 23 191 3.2 14.5 0.00 0.00 0.00 52 1000.6
20260509230538 23 243 4.8 14.5 0.00 0.00 0.00 52 1000.5
20260509230047 23 206 6.4 11.3 0.00 0.00 0.00 51 1000.6
20260509225539 24 224 4.8 11.3 0.00 0.00 0.00 52 1000.5
20260509225037 24 139 3.2 11.3 0.00 0.00 0.00 52 1000.4
20260509224547 23 221 4.8 12.9 0.00 0.00 0.00 52 1000.4
20260509224041 23 224 4.8 12.9 0.00 0.00 0.00 52 1000.4
20260509223536 23 231 6.4 12.9 0.00 0.00 0.00 52 1000.4
20260509223041 23 176 1.6 9.7 0.00 0.00 0.00 52 1000.4
20260509222536 23 236 3.2 12.9 0.00 0.00 0.00 52 1000.4
20260509222036 23 234 4.8 17.7 0.00 0.00 0.00 52 1000.6
20260509221536 23 233 8.0 17.7 0.00 0.00 0.00 52 1000.6
20260509221036 23 250 3.2 8.0 0.00 0.00 0.00 53 1000.6
20260509220635 23 232 1.6 11.3 0.00 0.00 0.00 53 1000.6
20260509220036 23 235 3.2 12.9 0.00 0.00 0.00 53 1000.6
20260509215533 23 238 1.6 8.0 0.00 0.00 0.00 52 1000.5
20260509215033 23 234 1.6 19.3 0.00 0.00 0.00 52 1000.6
20260509214532 23 219 11.3 19.3 0.00 0.00 0.00 52 1000.6
20260509214034 23 223 6.4 16.1 0.00 0.00 0.00 51 1000.7
20260509213531 23 212 4.8 19.3 0.00 0.00 0.00 51 1000.6
20260509213030 24 201 8.0 17.7 0.00 0.00 0.00 51 1000.5
20260509212529 24 217 3.2 17.7 0.00 0.00 0.00 52 1000.4
20260509212033 24 196 4.8 12.9 0.00 0.00 0.00 51 1000.5
20260509211529 23 225 3.2 12.9 0.00 0.00 0.00 52 1000.4
20260509211029 24 210 4.8 19.3 0.00 0.00 0.00 51 1000.3
20260509210529 24 233 6.4 19.3 0.00 0.00 0.00 52 1000.3
20260509210028 24 261 4.8 19.3 0.00 0.00 0.00 52 1000.3
20260509205528 24 221 8.0 20.9 0.00 0.00 0.00 51 1000.3
20260509205028 24 170 4.8 20.9 0.00 0.00 0.00 53 1000.3
20260509204528 23 214 9.7 20.9 0.00 0.00 0.00 52 1000.2
20260509204028 24 203 8.0 20.9 0.00 0.00 0.00 53 1000.1
20260509203528 24 217 9.7 20.9 0.00 0.00 0.00 52 1000.2
20260509203034 24 231 6.4 17.7 0.00 0.00 0.00 52 1000.3
20260509202527 24 232 6.4 17.7 0.00 0.00 0.00 53 1000.3
20260509202026 24 207 6.4 20.9 0.00 0.00 0.00 53 1000.3
20260509201526 23 222 9.7 24.1 0.00 0.00 0.00 54 1000.4
20260509201028 23 218 8.0 24.1 0.00 0.00 0.00 55 1000.5
20260509200524 24 207 4.8 24.1 0.00 0.00 0.00 54 1000.4
20260509200024 24 220 3.2 24.1 0.00 0.00 0.00 55 1000.6
20260509195523 23 175 8.0 20.9 0.00 0.00 0.00 54 1000.7
20260509195022 23 234 6.4 20.9 0.00 0.00 0.00 56 1000.7
20260509194526 23 156 3.2 19.3 0.00 0.00 0.00 57 1000.9
20260509194020 23 230 8.0 19.3 0.00 0.00 0.00 56 1000.9
20260509193521 23 236 9.7 19.3 0.00 0.00 0.00 56 1000.9
20260509193019 23 269 4.8 12.9 0.00 0.00 0.00 59 1001.1
20260509192517 22 218 4.8 12.9 0.00 0.00 0.00 60 1001.2
20260509192018 21 257 1.6 9.7 0.00 0.00 0.00 61 1001.4
20260509191515 21 243 3.2 12.9 0.00 0.00 0.00 61 1001.6
20260509191014 21 229 4.8 14.5 0.00 0.00 0.00 61 1001.7
20260509190513 21 238 6.4 17.7 0.00 0.00 0.00 61 1001.7
20260509190013 21 226 8.0 16.1 0.00 0.00 0.00 60 1001.8
20260509185512 22 233 9.7 17.7 0.00 0.00 0.00 60 1001.8
20260509185012 22 235 9.7 19.3 0.00 0.00 0.00 60 1001.9
20260509184522 22 236 4.8 16.1 0.00 0.00 0.00 62 1001.9
20260509184010 21 237 8.0 16.1 0.00 0.00 0.00 62 1001.9
20260509183510 21 228 3.2 12.9 0.00 0.00 0.00 62 1002.0
20260509183010 21 244 3.2 14.5 0.00 0.00 0.00 62 1002.1
20260509182510 21 244 4.8 14.5 0.00 0.00 0.00 61 1002.1
20260509182010 21 309 3.2 20.9 0.00 0.00 0.00 62 1002.1
20260509181509 21 247 8.0 20.9 0.00 0.00 0.00 60 1002.2
20260509181008 22 214 3.2 19.3 0.00 0.00 0.00 61 1002.2
20260509180511 21 253 6.4 19.3 0.00 0.00 0.00 60 1002.2
20260509180007 21 205 8.0 17.7 0.00 0.00 0.00 60 1002.3
20260509175506 21 220 4.8 20.9 0.00 0.00 0.00 60 1002.2
20260509175005 21 200 11.3 20.9 0.00 0.00 0.00 60 1002.4
20260509174506 21 234 9.7 17.7 0.00 0.00 0.00 60 1002.4
20260509174004 21 223 3.2 16.1 0.00 0.00 0.00 61 1002.4
20260509173508 21 186 8.0 24.1 0.00 0.00 0.00 60 1002.4
20260509173004 21 224 12.9 24.1 0.00 0.00 0.00 60 1002.5
20260509172505 21 230 8.0 20.9 0.00 0.00 0.00 61 1002.5
20260509172003 21 230 11.3 22.5 0.00 0.00 0.00 61 1002.6
20260509171501 21 231 11.3 22.5 0.00 0.00 0.00 61 1002.7
20260509171059 21 252 6.4 16.1 0.00 0.00 0.00 63 1002.7
20260509170559 20 209 8.0 14.5 0.00 0.00 0.00 62 1002.8
20260509170059 20 229 6.4 14.5 0.00 0.00 0.00 62 1002.8
20260509165558 20 187 4.8 19.3 0.00 0.00 0.00 62 1002.8
20260509165058 20 229 6.4 22.5 0.00 0.00 0.00 61 1002.8
20260509164558 20 230 9.7 22.5 0.00 0.00 0.00 61 1002.9
20260509164058 20 234 12.9 22.5 0.00 0.00 0.00 61 1002.9
20260509163557 20 197 11.3 22.5 0.00 0.00 0.00 61 1002.9
20260509163056 20 229 12.9 22.5 0.00 0.00 0.00 60 1002.8
20260509162555 20 185 8.0 20.9 0.00 0.00 0.00 60 1002.9
20260509162055 20 188 11.3 20.9 0.00 0.00 0.00 60 1003.0
20260509161601 20 243 8.0 19.3 0.00 0.00 0.00 60 1002.9
20260509161051 20 228 6.4 25.7 0.00 0.00 0.00 61 1002.9
20260509160551 20 224 9.7 25.7 0.00 0.00 0.00 60 1002.9
20260509160051 20 244 11.3 27.4 0.00 0.00 0.00 60 1002.9
20260509155549 20 212 12.9 33.8 0.00 0.00 0.00 60 1002.9
20260509155049 20 248 19.3 33.8 0.00 0.00 0.00 58 1002.9
20260509154556 20 231 14.5 29.0 0.00 0.00 0.00 59 1003.2
20260509154049 20 217 12.9 25.7 0.00 0.00 0.00 60 1003.0
20260509153552 20 212 9.7 20.9 0.00 0.00 0.00 61 1003.2
20260509153056 20 167 9.7 27.4 0.00 0.00 0.00 62 1003.4
20260509152548 20 243 11.3 27.4 0.00 0.00 0.00 61 1003.4
20260509152048 20 248 11.3 19.3 0.00 0.00 0.00 62 1003.3
20260509151557 20 231 9.7 24.1 0.00 0.00 0.00 62 1003.3
20260509151045 20 245 12.9 30.6 0.00 0.00 0.00 62 1003.2
20260509150548 20 235 11.3 30.6 0.00 0.00 0.00 62 1003.2
20260509150044 20 155 12.9 22.5 0.00 0.00 0.00 62 1003.4
20260509145543 20 184 9.7 19.3 0.00 0.00 0.00 62 1003.4
20260509145045 20 143 4.8 17.7 0.00 0.00 0.00 64 1003.5
20260509144539 19 218 6.4 17.7 0.00 0.00 0.00 64 1003.6
20260509144038 18 203 8.0 16.1 0.00 0.00 0.00 65 1003.6
20260509143537 18 231 8.0 20.9 0.00 0.00 0.00 64 1003.8
20260509143041 18 172 9.7 27.4 0.00 0.00 0.00 65 1004.0
20260509142535 18 249 8.0 27.4 0.00 0.00 0.00 67 1004.0
20260509142033 18 213 4.8 16.1 0.00 0.00 0.00 67 1004.0
20260509141541 17 233 6.4 16.1 0.00 0.00 0.00 67 1004.0
20260509141031 17 159 8.0 20.9 0.00 0.00 0.00 68 1004.1
20260509140529 17 232 9.7 17.7 0.00 0.00 0.00 68 1004.1
20260509140028 17 186 8.0 19.3 0.00 0.00 0.00 68 1004.1
20260509135531 17 232 8.0 19.3 0.00 0.00 0.00 69 1004.2
20260509135026 17 180 8.0 20.9 0.00 0.00 0.00 69 1004.3
20260509134531 16 247 8.0 20.9 0.00 0.00 0.00 70 1004.2
20260509134028 16 235 8.0 20.9 0.00 0.00 0.00 70 1004.2
20260509133524 16 226 8.0 19.3 0.00 0.00 0.00 71 1004.1
20260509133023 16 200 8.0 19.3 0.00 0.00 0.00 71 1004.2
20260509132522 16 207 9.7 20.9 0.00 0.00 0.00 71 1004.2
20260509132021 15 203 8.0 20.9 0.00 0.00 0.00 72 1004.2